Preview of NWS' New Version of Forecast
This preview is not operational and should not be used for support decisions.

Regional Weather Roundup (RWR)

Issued by Gray - Portland, ME (GYX)

                            
000
ASUS41 KGYX 240910
RWRGYX
WEATHER ROUNDUP FOR MAINE AND NEW HAMPSHIRE
NATIONAL WEATHER SERVICE GRAY ME
500 AM EDT FRI MAY 24 2019

MEZ002-005-006-010-012-015-018-020-021-024-026-027-029-241000-
MAINE
  
CITY           SKY/WX    TMP DP  RH WIND       PRES   REMARKS
PORTLAND       FAIR      55  53  93 W7        29.55F                  
SANFORD        FAIR      56  54  93 W10       29.57F                  
BAR HARBOR     CLOUDY    47  47 100 NE5       29.57F                  
WISCASSET      FOG       52  51  97 CALM      29.55F VSB 1/2          
ROCKLAND       FOG       47  47 100 NE7       29.55F VSB 1/2          
FRYEBURG       CLOUDY    55  53  93 VRB3      29.56F                  
LEWISTONAUBURN FOG       52  52 100 NW3       29.55F VSB 1/4          
AUGUSTA        FOG       50  50 100 N5        29.56F VSB 1/4          
WATERVILLE     LGT RAIN  48  48 100 N6        29.53F FOG              
BANGOR         LGT RAIN  48  47  96 NE7       29.57F FOG              
GREENVILLE       N/A     45  43  93 E14       29.55F                  
MILLINOCKET    LGT RAIN  47  45  93 E10       29.65S                  
HOULTON        RAIN      46  44  93 E7        29.70R FOG              
PRESQUE ISLE   RAIN      49  46  90 E7        29.75R                  
FRENCHVILLE    LGT RAIN  50  44  80 NE8       29.75S                  
CARIBOU        LGT RAIN  49  45  86 E7        29.74R                  
$$

NHZ002-005-008-009-011-012-014-241000-
NEW HAMPSHIRE
  
CITY           SKY/WX    TMP DP  RH WIND       PRES   REMARKS
PORTSMOUTH     PTCLDY    57  55  94 W6        29.57F                  
ROCHESTER      FAIR      54  52  93 VRB5      29.58S                  
NASHUA         FAIR      59  56  89 W9        29.61F                  
MANCHESTER     FAIR      58  55  90 W5        29.60F                  
CONCORD        FAIR      55  52  89 CALM      29.61S                  
LACONIA        CLOUDY    55  54  96 CALM      29.60R                  
PLYMOUTH       CLOUDY    55  54  95 CALM      29.60R                  
BERLIN         NOT AVBL                                               
WHITEFIELD     LGT RAIN  56  52  86 SW9       29.60R                  
JAFFREY        FAIR      55  51  86 S6        29.67R                  
KEENE          FAIR      52  52 100 S3        29.66S                  
LEBANON        CLOUDY    55  52  89 CALM      29.64R                  
MT WASHINGTON  SHOWER    39  39 100 W64G71      N/A  VSB 0            
$$

VTZ005-007-008-241000-
VERMONT
  
CITY           SKY/WX    TMP DP  RH WIND       PRES   REMARKS
ST JOHNSBURY     N/A     58  54  86 MISG      29.59S                  
MONTPELIER     LGT RAIN  56  51  84 W12       29.67S                  
BURLINGTON     RAIN      58 N/A N/A NW13      29.67R                  
$$

MAZ007-012-024-CTZ003-RIZ002-NYZ038-NYZ072-241000-
SOUTHERN NEW ENGLAND AND NY
  
CITY           SKY/WX    TMP DP  RH WIND       PRES   REMARKS
BOSTON         FAIR      65  55  70 W20G28    29.62F                  
WORCESTER      FAIR      56  53  90 W20       29.67F                  
NANTUCKET      FOG       55  54  96 W16       29.67F VSB 3/4          
PROVIDENCE     FAIR      60  57  89 W7        29.69S                  
HARTFORD       FAIR      62  53  72 W8        29.73R                  
ALBANY         MOCLDY    60  48  64 NW20G38   29.77R                  
NEW YORK CITY  FAIR      71  57  61 W12       29.79R                  
$$

ANZ081-ANZ082-ANZ150-NHZ014-MEZ023>029-241000-
COASTAL MARINE OBSERVATIONS
  
STATION/POSITION TIME  TEMP    WIND        PRES    WAVE
                       AIR SEA DIR/SP/G            HT/PER
                 (UTC) (F)     (DEG/KT/KT) (MB)    (FT/S)
ISLE OF SHOALS   0900   59     250/ 19/ 20 1001.0F
JEFFREYS LEDGE   0838      48                N/A     4/ 7
GEORGES BANK BUO 0850   52 44  190/ 23/ 27 1006.6F   8/ 7
$$

.............KEY..............
   WCI - WIND CHILL
   TC  - TEMPERATURE IN CELSIUS
   VSB - VISIBILITY IN MILES
   HX  - HEAT INDEX
   FAIR- INDICATES FEW OR NO CLOUDS BELOW 12,000 FT, WITH NO 
         SIGNIFICANT WEATHER AND/OR OBSTRUCTIONS TO VISIBILITY.